Year,Month,Day,Hour,Minute,Value (Times are PST for temperature in C)
2003,04,26,04,48,5.40
2003,04,26,04,49,5.30
2003,04,26,04,50,5.30
2003,04,26,04,51,5.30
2003,04,26,04,52,5.30
2003,04,26,04,53,5.30
2003,04,26,04,54,5.30
2003,04,26,04,55,5.30
2003,04,26,04,56,5.30
2003,04,26,04,57,5.30
2003,04,26,04,58,5.30
2003,04,26,04,59,5.20
2003,04,26,05,00,5.20
2003,04,26,05,01,5.20
2003,04,26,05,02,5.30
2003,04,26,05,03,5.40
2003,04,26,05,04,5.40
2003,04,26,05,05,5.40
2003,04,26,05,06,5.40
2003,04,26,05,07,5.40
2003,04,26,05,08,5.40
2003,04,26,05,09,5.30
2003,04,26,05,10,5.30
2003,04,26,05,11,5.20
2003,04,26,05,12,5.20
2003,04,26,05,13,5.10
2003,04,26,05,14,5.10
2003,04,26,05,15,5.10
2003,04,26,05,16,5.10
2003,04,26,05,17,5.10
2003,04,26,05,18,5.10
2003,04,26,05,19,5.10
2003,04,26,05,20,5.10
2003,04,26,05,21,5.20
2003,04,26,05,22,5.20
2003,04,26,05,23,5.20
2003,04,26,05,24,5.20
2003,04,26,05,25,5.20
2003,04,26,05,26,5.20
2003,04,26,05,27,5.10
2003,04,26,05,28,5.10
2003,04,26,05,29,5.00
2003,04,26,05,30,5.00
2003,04,26,05,31,4.90
2003,04,26,05,32,4.80
2003,04,26,05,33,4.70
2003,04,26,05,34,4.70
2003,04,26,05,35,4.70
2003,04,26,05,36,4.60
2003,04,26,05,37,4.70
2003,04,26,05,38,4.70
2003,04,26,05,39,4.70
2003,04,26,05,40,4.70
2003,04,26,05,41,4.70
2003,04,26,05,42,4.70
2003,04,26,05,43,4.70
2003,04,26,05,44,4.60
2003,04,26,05,45,4.60
2003,04,26,05,46,4.60
2003,04,26,05,47,4.50
2003,04,26,05,48,4.50
2003,04,26,05,49,4.40
2003,04,26,05,50,4.40
2003,04,26,05,51,4.40
2003,04,26,05,52,4.50
2003,04,26,05,53,4.60
2003,04,26,05,54,4.60
2003,04,26,05,55,4.70
2003,04,26,05,56,4.70
2003,04,26,05,57,4.70
2003,04,26,05,58,4.70
2003,04,26,05,59,4.70
2003,04,26,06,00,4.60
2003,04,26,06,01,4.60
2003,04,26,06,02,4.60
2003,04,26,06,03,4.60
2003,04,26,06,04,4.50
2003,04,26,06,05,4.50
2003,04,26,06,06,4.50
2003,04,26,06,07,4.60
2003,04,26,06,08,4.60
2003,04,26,06,09,4.70
2003,04,26,06,10,4.70
2003,04,26,06,11,4.70
2003,04,26,06,12,4.70
2003,04,26,06,13,4.70
2003,04,26,06,14,4.80
2003,04,26,06,15,4.80
2003,04,26,06,16,4.90
2003,04,26,06,17,4.90
2003,04,26,06,18,4.90
2003,04,26,06,19,4.90
2003,04,26,06,20,4.90
2003,04,26,06,21,5.00
2003,04,26,06,22,4.90
2003,04,26,06,23,4.90
2003,04,26,06,24,4.80
2003,04,26,06,25,4.70
2003,04,26,06,26,4.70
2003,04,26,06,27,4.70
2003,04,26,06,28,4.70
2003,04,26,06,29,4.70
2003,04,26,06,30,4.70
2003,04,26,06,31,4.70
2003,04,26,06,32,4.60
2003,04,26,06,33,4.70
2003,04,26,06,34,4.80
2003,04,26,06,35,4.80
2003,04,26,06,36,4.90
2003,04,26,06,37,4.90
2003,04,26,06,38,5.00
2003,04,26,06,39,5.10
2003,04,26,06,40,5.10
2003,04,26,06,41,5.10
2003,04,26,06,42,5.20
2003,04,26,06,43,5.20
2003,04,26,06,44,5.20
2003,04,26,06,45,5.30
2003,04,26,06,46,5.30
2003,04,26,06,47,5.40
2003,04,26,06,48,5.50
2003,04,26,06,49,5.50
2003,04,26,06,50,5.60
2003,04,26,06,51,5.60
2003,04,26,06,52,5.70
2003,04,26,06,53,5.70
2003,04,26,06,54,5.70
2003,04,26,06,55,5.70
2003,04,26,06,56,5.80
2003,04,26,06,57,5.90
2003,04,26,06,58,5.90
2003,04,26,06,59,5.90
2003,04,26,07,00,5.90
2003,04,26,07,01,5.90
2003,04,26,07,02,6.00
2003,04,26,07,03,6.10
2003,04,26,07,04,6.20
2003,04,26,07,05,6.30
2003,04,26,07,06,6.40
2003,04,26,07,07,6.50
2003,04,26,07,08,6.70
2003,04,26,07,09,6.80
2003,04,26,07,10,6.90
2003,04,26,07,11,7.00
2003,04,26,07,12,7.00
2003,04,26,07,13,7.10
2003,04,26,07,14,7.20
2003,04,26,07,15,7.30
2003,04,26,07,16,7.40
2003,04,26,07,17,7.40
2003,04,26,07,18,7.50
2003,04,26,07,19,7.50
2003,04,26,07,20,7.70
2003,04,26,07,21,7.80
2003,04,26,07,22,7.90
2003,04,26,07,23,8.10
2003,04,26,07,24,8.20
2003,04,26,07,25,8.20
2003,04,26,07,26,8.30
2003,04,26,07,27,8.40
2003,04,26,07,28,8.50
2003,04,26,07,29,8.70
2003,04,26,07,30,8.70
2003,04,26,07,31,8.80
2003,04,26,07,32,8.90
2003,04,26,07,33,8.90
2003,04,26,07,34,9.00
2003,04,26,07,35,9.20
2003,04,26,07,36,9.20
2003,04,26,07,37,9.30
2003,04,26,07,38,9.30
2003,04,26,07,39,9.30
2003,04,26,07,40,9.40
2003,04,26,07,41,9.50
2003,04,26,07,42,9.60
2003,04,26,07,43,9.70
2003,04,26,07,44,9.70
2003,04,26,07,45,9.70
2003,04,26,07,46,9.80
2003,04,26,07,47,9.80
2003,04,26,07,48,9.90
2003,04,26,07,49,10.00
2003,04,26,07,50,10.10
2003,04,26,07,51,10.20
2003,04,26,07,52,10.30
2003,04,26,07,53,10.40
2003,04,26,07,54,10.40
2003,04,26,07,55,10.40
2003,04,26,07,56,10.50
2003,04,26,07,57,10.60
2003,04,26,07,58,10.70
2003,04,26,07,59,10.70
2003,04,26,08,00,10.70
2003,04,26,08,01,10.80
2003,04,26,08,02,10.90
2003,04,26,08,03,10.90
2003,04,26,08,04,10.90
2003,04,26,08,05,11.00
2003,04,26,08,06,11.10
2003,04,26,08,07,11.20
2003,04,26,08,08,11.30
2003,04,26,08,09,11.40
2003,04,26,08,10,11.50
2003,04,26,08,11,11.60
2003,04,26,08,12,11.40
2003,04,26,08,13,11.60
2003,04,26,08,14,11.60
2003,04,26,08,15,11.60
2003,04,26,08,16,11.70
2003,04,26,08,17,11.80
2003,04,26,08,18,11.80
2003,04,26,08,19,11.80
2003,04,26,08,20,11.80
2003,04,26,08,21,11.80
2003,04,26,08,22,11.80
2003,04,26,08,23,11.80
2003,04,26,08,24,11.70
2003,04,26,08,25,11.60
2003,04,26,08,26,11.60
2003,04,26,08,27,11.60
2003,04,26,08,28,11.50
2003,04,26,08,29,11.10
2003,04,26,08,30,11.10
2003,04,26,08,31,10.90
2003,04,26,08,32,10.80
2003,04,26,08,33,10.90
2003,04,26,08,34,10.90
2003,04,26,08,35,10.80
2003,04,26,08,36,10.70
2003,04,26,08,37,10.70
2003,04,26,08,38,10.70
2003,04,26,08,39,10.70
2003,04,26,08,40,10.70
2003,04,26,08,41,10.70
2003,04,26,08,42,10.70
2003,04,26,08,43,10.60
2003,04,26,08,44,10.60
2003,04,26,08,45,10.40
2003,04,26,08,46,10.30
2003,04,26,08,47,10.30
2003,04,26,08,48,10.20
2003,04,26,08,49,10.20
2003,04,26,08,50,10.30
2003,04,26,08,51,10.30
2003,04,26,08,52,10.10
2003,04,26,08,53,10.10
2003,04,26,08,54,10.10
2003,04,26,08,55,10.20
2003,04,26,08,56,10.20
2003,04,26,08,57,10.20
2003,04,26,08,58,10.20
2003,04,26,08,59,10.20
2003,04,26,09,00,10.20
2003,04,26,09,01,10.10
2003,04,26,09,02,10.00
2003,04,26,09,03,9.90
2003,04,26,09,04,9.90
2003,04,26,09,05,9.90
2003,04,26,09,06,10.00
2003,04,26,09,07,10.00
2003,04,26,09,08,10.00
2003,04,26,09,09,10.00
2003,04,26,09,10,10.00
2003,04,26,09,11,10.00
2003,04,26,09,12,9.90
2003,04,26,09,13,9.90
2003,04,26,09,14,10.10
2003,04,26,09,15,9.90
2003,04,26,09,16,9.90
2003,04,26,09,17,10.00
2003,04,26,09,18,10.00
2003,04,26,09,19,10.10
2003,04,26,09,20,10.10
2003,04,26,09,21,10.10
2003,04,26,09,22,10.30
2003,04,26,09,23,10.30
2003,04,26,09,24,10.30
2003,04,26,09,25,10.20
2003,04,26,09,26,10.30
2003,04,26,09,27,10.20
2003,04,26,09,28,10.20
2003,04,26,09,29,10.20
2003,04,26,09,30,10.10
2003,04,26,09,31,10.10
2003,04,26,09,32,10.10
2003,04,26,09,33,10.10
2003,04,26,09,34,10.10
2003,04,26,09,35,10.20
2003,04,26,09,36,10.30
2003,04,26,09,37,10.30
2003,04,26,09,38,10.20
2003,04,26,09,39,10.10
2003,04,26,09,40,10.10
2003,04,26,09,41,10.30
2003,04,26,09,42,10.50
2003,04,26,09,43,10.60
2003,04,26,09,44,10.40
2003,04,26,09,45,10.40
2003,04,26,09,46,10.30
2003,04,26,09,47,10.40
2003,04,26,09,48,10.40
2003,04,26,09,49,10.50
2003,04,26,09,50,10.60
2003,04,26,09,51,10.60
2003,04,26,09,52,10.70
2003,04,26,09,53,10.70
2003,04,26,09,54,10.60
2003,04,26,09,55,10.60
2003,04,26,09,56,10.60
2003,04,26,09,57,10.60
2003,04,26,09,58,10.40
2003,04,26,09,59,10.30
2003,04,26,10,00,10.40
2003,04,26,10,01,10.40
2003,04,26,10,02,10.30
2003,04,26,10,03,10.30
2003,04,26,10,04,10.40
2003,04,26,10,05,10.50
2003,04,26,10,06,10.40
2003,04,26,10,07,10.40
2003,04,26,10,08,10.40
2003,04,26,10,09,10.40
2003,04,26,10,10,10.40
2003,04,26,10,11,10.30
2003,04,26,10,12,10.40
2003,04,26,10,13,10.50
2003,04,26,10,14,10.70
2003,04,26,10,15,10.80
2003,04,26,10,16,10.90
2003,04,26,10,17,10.90
2003,04,26,10,18,10.90
2003,04,26,10,19,10.90
2003,04,26,10,20,10.90
2003,04,26,10,21,10.90
2003,04,26,10,22,10.90
2003,04,26,10,23,10.90
2003,04,26,10,24,10.90
2003,04,26,10,25,10.90
2003,04,26,10,26,10.90
2003,04,26,10,27,10.90
2003,04,26,10,28,10.90
2003,04,26,10,29,10.90
2003,04,26,10,30,10.90
2003,04,26,10,31,10.90
2003,04,26,10,32,10.90
2003,04,26,11,40,10.60
2003,04,26,11,41,10.70
2003,04,26,11,42,10.80
2003,04,26,11,43,10.80
2003,04,26,11,44,10.80
2003,04,26,11,45,10.80
2003,04,26,11,46,10.90
2003,04,26,11,47,10.90
2003,04,26,11,48,10.80
2003,04,26,11,49,10.70
2003,04,26,11,50,10.60
2003,04,26,11,51,10.60
2003,04,26,11,52,10.40
2003,04,26,11,53,10.40
2003,04,26,11,54,10.50
2003,04,26,11,55,10.70
2003,04,26,11,56,10.60
2003,04,26,11,57,10.60
2003,04,26,11,58,10.60
2003,04,26,11,59,10.60
2003,04,26,12,00,10.70
2003,04,26,12,01,10.90
2003,04,26,12,02,10.70
2003,04,26,12,03,10.60
2003,04,26,12,04,10.60
2003,04,26,12,05,10.90
2003,04,26,12,06,10.90
2003,04,26,12,07,10.90
2003,04,26,12,08,10.80
2003,04,26,12,09,10.70
2003,04,26,12,10,10.60
2003,04,26,12,11,10.60
2003,04,26,12,12,10.70
2003,04,26,12,13,10.60
2003,04,26,12,14,10.60
2003,04,26,12,15,10.60
2003,04,26,12,16,10.80
2003,04,26,12,17,10.70
2003,04,26,12,18,10.70
2003,04,26,12,19,10.70
2003,04,26,12,20,10.80
2003,04,26,12,21,10.70
2003,04,26,12,22,10.60
2003,04,26,12,23,10.80
2003,04,26,12,24,10.90
2003,04,26,12,25,10.90
2003,04,26,12,26,10.80
2003,04,26,12,27,10.60
2003,04,26,12,28,10.70
2003,04,26,12,29,10.80
2003,04,26,12,30,10.90
2003,04,26,12,31,10.90
2003,04,26,12,32,10.70
2003,04,26,12,33,10.80
2003,04,26,12,34,10.60
2003,04,26,12,35,10.60
2003,04,26,12,36,10.60
2003,04,26,12,37,10.60
2003,04,26,12,38,10.60
2003,04,26,12,39,10.60
2003,04,26,12,40,10.60
2003,04,26,12,41,10.40
2003,04,26,12,42,10.40
2003,04,26,12,43,10.30
2003,04,26,12,44,10.30
2003,04,26,12,45,10.20
2003,04,26,12,46,10.30
2003,04,26,12,47,10.30
2003,04,26,12,48,10.30
2003,04,26,12,49,10.20
2003,04,26,12,50,10.20
2003,04,26,12,51,10.30
2003,04,26,12,52,10.40
2003,04,26,12,53,10.40
2003,04,26,12,54,10.40
2003,04,26,12,55,10.40
2003,04,26,12,56,10.40
2003,04,26,12,57,10.40
2003,04,26,12,58,10.40
2003,04,26,12,59,10.40
2003,04,26,13,00,10.40
2003,04,26,13,01,10.70
2003,04,26,13,02,10.60
2003,04,26,13,03,10.70
2003,04,26,13,04,10.70
2003,04,26,13,05,10.60
2003,04,26,13,06,10.40
2003,04,26,13,07,10.40
2003,04,26,13,08,10.40
2003,04,26,13,09,10.40
2003,04,26,13,10,10.60
2003,04,26,13,11,10.60
2003,04,26,13,12,10.60
2003,04,26,13,13,10.70
2003,04,26,13,14,10.90
2003,04,26,13,15,10.90
2003,04,26,13,16,11.00
2003,04,26,13,17,11.10
2003,04,26,13,18,11.00
2003,04,26,13,19,10.90
2003,04,26,13,20,10.80
2003,04,26,13,21,10.60
2003,04,26,13,22,10.50
2003,04,26,13,23,10.60
2003,04,26,13,24,10.50
2003,04,26,13,25,10.60
2003,04,26,13,26,10.70
2003,04,26,13,27,10.80
2003,04,26,13,28,10.80
2003,04,26,13,29,10.80
2003,04,26,13,30,10.80
2003,04,26,13,31,10.70
2003,04,26,13,32,10.60
2003,04,26,13,33,10.60
2003,04,26,13,34,10.60
2003,04,26,13,35,10.80
2003,04,26,13,36,10.90
2003,04,26,13,37,10.80
2003,04,26,13,38,10.80
2003,04,26,13,39,10.90
2003,04,26,13,40,10.90
2003,04,26,13,41,10.80
2003,04,26,13,42,10.70
2003,04,26,13,43,10.70
2003,04,26,13,44,10.70
2003,04,26,13,45,10.80
2003,04,26,13,46,10.80
2003,04,26,13,47,10.80
2003,04,26,13,48,10.90
2003,04,26,13,49,10.90
2003,04,26,13,50,10.90
2003,04,26,13,51,10.90
2003,04,26,13,52,10.90
2003,04,26,13,53,10.90
2003,04,26,13,54,10.90
2003,04,26,13,55,11.00
2003,04,26,13,56,11.10
2003,04,26,13,57,11.20
2003,04,26,13,58,11.30
2003,04,26,13,59,11.20
2003,04,26,14,00,11.10
2003,04,26,14,01,11.20
2003,04,26,14,02,11.00
2003,04,26,14,03,11.10
2003,04,26,14,04,11.00
2003,04,26,14,05,10.90
2003,04,26,14,06,11.10
2003,04,26,14,07,11.10
2003,04,26,14,08,11.10
2003,04,26,14,09,11.20
2003,04,26,14,10,11.20
2003,04,26,14,11,11.20
2003,04,26,14,12,11.20
2003,04,26,14,13,11.30
2003,04,26,14,14,11.40
2003,04,26,14,15,11.40
2003,04,26,14,16,11.50
2003,04,26,14,17,11.40
2003,04,26,14,18,11.40
2003,04,26,14,19,11.40
2003,04,26,14,20,11.60
2003,04,26,14,21,11.70
2003,04,26,14,22,11.60
2003,04,26,14,23,11.60
2003,04,26,14,24,11.30
2003,04,26,14,25,11.20
2003,04,26,14,26,11.10
2003,04,26,14,27,11.00
2003,04,26,14,28,11.00
2003,04,26,14,29,10.90
2003,04,26,14,30,11.00
2003,04,26,14,31,11.10
2003,04,26,14,32,11.10
2003,04,26,14,33,11.00
2003,04,26,14,34,11.00
2003,04,26,14,35,11.00
2003,04,26,14,36,11.10
2003,04,26,14,37,11.30
2003,04,26,14,38,11.40
2003,04,26,14,39,11.40
2003,04,26,14,40,11.30
2003,04,26,14,41,11.20
2003,04,26,14,42,11.30
2003,04,26,14,43,11.40
2003,04,26,14,44,11.40
2003,04,26,14,45,11.40
2003,04,26,14,46,11.30
2003,04,26,14,47,11.40
2003,04,26,14,48,11.30
2003,04,26,14,49,11.20
2003,04,26,14,50,11.30
2003,04,26,14,51,11.40
2003,04,26,14,52,11.50
2003,04,26,14,53,11.70
2003,04,26,14,54,11.70
2003,04,26,14,55,11.80
2003,04,26,14,56,11.70
2003,04,26,14,57,11.60
2003,04,26,14,58,11.50
2003,04,26,14,59,11.40
2003,04,26,15,00,11.30
2003,04,26,15,01,11.30
2003,04,26,15,02,11.40
2003,04,26,15,03,11.40
2003,04,26,15,04,11.30
2003,04,26,15,05,11.40
2003,04,26,15,06,11.40
2003,04,26,15,07,11.50
2003,04,26,15,08,11.40
2003,04,26,15,09,11.40
2003,04,26,15,10,11.30
2003,04,26,15,11,11.30
2003,04,26,15,12,11.50
2003,04,26,15,13,11.50
2003,04,26,15,14,11.50
2003,04,26,15,15,11.50
2003,04,26,15,16,11.40
2003,04,26,15,17,11.50
2003,04,26,15,18,11.40
2003,04,26,15,19,11.40
2003,04,26,15,20,11.60
2003,04,26,15,21,11.60
2003,04,26,15,22,11.60
2003,04,26,15,23,11.60
2003,04,26,15,24,11.70
2003,04,26,15,25,11.70
2003,04,26,15,26,11.80
2003,04,26,15,27,11.80
2003,04,26,15,28,11.80
2003,04,26,15,29,11.90
2003,04,26,15,30,11.90
2003,04,26,15,31,12.10
2003,04,26,15,32,12.20
2003,04,26,15,33,12.20
2003,04,26,15,34,12.10
2003,04,26,15,35,12.00
2003,04,26,15,36,11.90
2003,04,26,15,37,11.80
2003,04,26,15,38,11.80
2003,04,26,15,39,11.80
2003,04,26,15,40,11.70
2003,04,26,15,41,11.80
2003,04,26,15,42,11.70
2003,04,26,15,43,11.50
2003,04,26,15,44,11.50
2003,04,26,15,45,11.50
2003,04,26,15,46,11.50
2003,04,26,15,47,11.50
2003,04,26,15,48,11.50
2003,04,26,15,49,11.40
2003,04,26,15,50,11.50
2003,04,26,15,51,11.40
2003,04,26,15,52,11.40
2003,04,26,15,53,11.40
2003,04,26,15,54,11.50
2003,04,26,15,55,11.70
2003,04,26,15,56,11.80
2003,04,26,15,57,11.80
2003,04,26,15,58,11.90
2003,04,26,15,59,12.00
2003,04,26,16,00,12.00
2003,04,26,16,01,12.10
2003,04,26,16,02,12.10
2003,04,26,16,03,12.00
2003,04,26,16,04,12.00
2003,04,26,16,05,12.00
2003,04,26,16,06,12.00
2003,04,26,16,07,12.00
2003,04,26,16,08,12.00
2003,04,26,16,09,12.00
2003,04,26,16,10,12.00
2003,04,26,16,11,12.00
2003,04,26,16,12,12.00
2003,04,26,16,13,12.00
2003,04,26,16,14,12.50
2003,04,26,16,15,12.40
2003,04,26,16,16,12.30
2003,04,26,16,17,12.30
2003,04,26,16,18,12.30
2003,04,26,16,19,12.30
2003,04,26,16,20,12.20
2003,04,26,16,21,12.20
2003,04,26,16,22,12.20
2003,04,26,16,23,12.10
2003,04,26,16,24,12.10
2003,04,26,16,25,12.20
2003,04,26,16,26,12.40
2003,04,26,16,27,12.50
2003,04,26,16,28,12.60
2003,04,26,16,29,12.70
2003,04,26,16,30,12.80
2003,04,26,16,31,12.80
2003,04,26,16,32,12.60
2003,04,26,16,33,12.30
2003,04,26,16,34,12.30
2003,04,26,16,35,12.50
2003,04,26,16,36,12.70
2003,04,26,16,37,12.80
2003,04,26,16,38,12.90
2003,04,26,16,39,12.80
2003,04,26,16,40,12.80
2003,04,26,16,41,13.00
2003,04,26,16,42,13.00
2003,04,26,16,43,13.00
2003,04,26,16,44,13.00
2003,04,26,16,45,13.00
2003,04,26,16,46,13.00
2003,04,26,16,47,13.00
2003,04,26,16,48,13.00
2003,04,26,16,49,13.00
2003,04,26,16,50,13.00
2003,04,26,16,51,13.00
2003,04,26,16,52,13.00
2003,04,26,16,53,13.00
2003,04,26,16,54,12.80
2003,04,26,16,55,12.70
2003,04,26,16,56,12.60
2003,04,26,16,57,12.60
2003,04,26,16,58,12.60
2003,04,26,16,59,12.60
2003,04,26,17,00,12.70
2003,04,26,17,01,12.50
2003,04,26,17,02,12.40
2003,04,26,17,03,12.30
2003,04,26,17,04,12.30
2003,04,26,17,05,12.20
2003,04,26,17,06,12.10
2003,04,26,17,07,12.00
2003,04,26,17,08,12.00
2003,04,26,17,09,11.90
2003,04,26,17,10,11.80
2003,04,26,17,11,11.80
2003,04,26,17,12,11.80
2003,04,26,17,13,11.80
2003,04,26,17,14,11.80
2003,04,26,17,15,11.80
2003,04,26,17,16,11.80
2003,04,26,17,17,11.80
2003,04,26,17,18,11.80
2003,04,26,17,19,11.80
2003,04,26,17,20,11.80
2003,04,26,17,21,11.80
2003,04,26,17,22,11.80
2003,04,26,18,14,11.90
2003,04,26,18,15,11.90
2003,04,26,18,16,11.90
2003,04,26,18,17,11.90
2003,04,26,18,18,11.90
2003,04,26,18,19,12.00
2003,04,26,18,20,12.10
2003,04,26,18,21,12.10
2003,04,26,18,22,12.20
2003,04,26,18,23,12.30
2003,04,26,18,24,12.30
2003,04,26,18,25,12.40
2003,04,26,18,26,12.40
2003,04,26,18,27,12.40
2003,04,26,18,28,12.50
2003,04,26,18,29,12.50
2003,04,26,18,30,12.60
2003,04,26,18,31,12.60
2003,04,26,18,32,12.60
2003,04,26,18,33,12.70
2003,04,26,18,34,12.80
2003,04,26,18,35,12.80
2003,04,26,18,36,12.80
2003,04,26,18,37,12.90
2003,04,26,18,38,12.90
2003,04,26,18,39,12.90
2003,04,26,18,40,12.90
2003,04,26,18,41,13.00
2003,04,26,18,42,13.20
2003,04,26,18,43,13.20
2003,04,26,18,44,13.20
2003,04,26,18,45,13.30
2003,04,26,18,46,13.30
2003,04,26,18,47,13.30
2003,04,26,18,48,13.30
2003,04,26,18,49,13.30
2003,04,26,18,50,13.30
2003,04,26,18,51,13.30
2003,04,26,18,52,13.30
2003,04,26,18,53,13.20
2003,04,26,18,54,13.10
2003,04,26,18,55,13.10
2003,04,26,18,56,13.10
2003,04,26,18,57,13.10
2003,04,26,18,58,13.10
2003,04,26,18,59,13.10
2003,04,26,19,00,13.20
2003,04,26,19,01,13.20
2003,04,26,19,02,13.20
2003,04,26,19,03,13.20
2003,04,26,19,04,13.30
2003,04,26,19,05,13.30
2003,04,26,19,06,13.30
2003,04,26,19,07,13.30
2003,04,26,19,08,13.30
2003,04,26,19,09,13.30
2003,04,26,19,10,13.30
2003,04,26,19,11,13.30
2003,04,26,19,12,13.30
2003,04,26,19,13,13.30
2003,04,26,19,14,13.30
2003,04,26,19,15,13.30
2003,04,26,19,16,13.30
2003,04,26,19,17,13.30
2003,04,26,19,18,13.30
2003,04,26,19,19,13.30
2003,04,26,19,20,13.30
2003,04,26,19,21,13.30
2003,04,26,19,22,13.30
2003,04,26,19,23,13.30
2003,04,26,19,24,13.30
2003,04,26,19,25,13.30
2003,04,26,19,26,13.20
2003,04,26,19,27,12.90
2003,04,26,19,28,12.80
2003,04,26,19,29,12.90
2003,04,26,19,30,12.80
2003,04,26,19,31,12.80
2003,04,26,19,32,12.80
2003,04,26,19,33,12.80
2003,04,26,19,34,12.80
2003,04,26,19,35,12.80
2003,04,26,19,36,12.90
2003,04,26,19,37,12.90
2003,04,26,19,38,12.90
2003,04,26,19,39,12.90
2003,04,26,19,40,12.80
2003,04,26,19,41,12.60
2003,04,26,19,42,12.60
2003,04,26,19,43,12.60
2003,04,26,19,44,12.60
2003,04,26,19,45,12.60
2003,04,26,19,46,12.50
2003,04,26,19,47,12.50
2003,04,26,19,48,12.50
2003,04,26,19,49,12.40
2003,04,26,19,50,12.50
2003,04,26,19,51,12.50
2003,04,26,19,52,12.50
2003,04,26,19,53,12.50
2003,04,26,19,54,12.40
2003,04,26,19,55,12.40
2003,04,26,19,56,12.30
2003,04,26,19,57,12.30
2003,04,26,19,58,12.30
2003,04,26,19,59,12.30
2003,04,26,20,00,12.30
2003,04,26,20,01,12.30
2003,04,26,20,02,12.20
2003,04,26,20,03,12.20
2003,04,26,20,04,12.20
2003,04,26,20,05,12.20
2003,04,26,20,06,12.20
2003,04,26,20,07,12.30
2003,04,26,20,08,12.30
2003,04,26,20,09,12.30
2003,04,26,20,10,12.30
2003,04,26,20,11,12.30
2003,04,26,20,12,12.20
2003,04,26,20,13,12.30
2003,04,26,20,14,12.30
2003,04,26,20,15,12.30
2003,04,26,20,16,12.20
2003,04,26,20,17,12.20
2003,04,26,20,18,12.20
2003,04,26,20,19,12.10
2003,04,26,20,20,12.10
2003,04,26,20,21,12.20
2003,04,26,20,22,12.20
2003,04,26,20,23,12.20
2003,04,26,20,24,12.10
2003,04,26,20,25,12.10
2003,04,26,20,26,12.00
2003,04,26,20,27,12.00
2003,04,26,20,28,12.00
2003,04,26,20,29,12.00
2003,04,26,20,30,12.00
2003,04,26,20,31,12.00
2003,04,26,20,32,12.00
2003,04,26,20,33,12.00
2003,04,26,20,34,12.00
2003,04,26,20,35,12.00
2003,04,26,20,36,12.00
2003,04,26,20,37,12.00
2003,04,26,20,38,12.00
2003,04,26,20,39,12.00
2003,04,26,20,40,11.80
2003,04,26,20,41,11.80
2003,04,26,20,42,11.80
2003,04,26,20,43,11.80
2003,04,26,20,44,11.80
2003,04,26,20,45,11.80
2003,04,26,20,46,11.70
2003,04,26,20,47,11.70
2003,04,26,20,48,11.80
2003,04,26,20,49,11.80
2003,04,26,20,50,11.80
2003,04,26,20,51,11.80
2003,04,26,20,52,11.80
2003,04,26,20,53,11.70
2003,04,26,20,54,11.70
2003,04,26,20,55,11.70
2003,04,26,20,56,11.70
2003,04,26,20,57,11.70
2003,04,26,20,58,11.70
2003,04,26,20,59,11.70
2003,04,26,21,00,11.70
2003,04,26,21,01,11.70
2003,04,26,21,02,11.70
2003,04,26,21,03,11.70
2003,04,26,21,04,11.70
2003,04,26,21,05,11.70
2003,04,26,21,06,11.70
2003,04,26,21,07,11.70
2003,04,26,21,08,11.70
2003,04,26,21,09,11.40
2003,04,26,21,10,11.40
2003,04,26,21,11,11.40
2003,04,26,21,12,11.40
2003,04,26,21,13,11.40
2003,04,26,21,14,11.40
2003,04,26,21,15,11.40
2003,04,26,21,16,11.40
2003,04,26,21,17,11.40
2003,04,26,21,18,11.40
2003,04,26,21,19,11.40
2003,04,26,21,20,11.40
2003,04,26,21,21,11.40
2003,04,26,21,22,11.30
2003,04,26,21,23,11.30
2003,04,26,21,24,11.30
2003,04,26,21,25,11.30
2003,04,26,21,26,11.30
2003,04,26,21,27,11.30
2003,04,26,21,28,11.30
2003,04,26,21,29,11.30
2003,04,26,21,30,11.30
2003,04,26,21,31,11.30
2003,04,26,21,32,11.30
2003,04,26,21,33,11.30
2003,04,26,21,34,11.30
2003,04,26,21,35,11.30
2003,04,26,21,36,11.30
2003,04,26,21,37,11.30
2003,04,26,21,38,11.30
2003,04,26,21,39,11.30
2003,04,26,21,40,11.30
2003,04,26,21,41,11.20
2003,04,26,21,42,11.20
2003,04,26,21,43,11.10
2003,04,26,21,44,11.10
2003,04,26,21,45,11.10
2003,04,26,21,46,11.20
2003,04,26,21,47,11.30
2003,04,26,21,48,11.30
2003,04,26,21,49,11.30
2003,04,26,21,50,11.30
2003,04,26,21,51,11.30
2003,04,26,21,52,11.30
2003,04,26,21,53,11.30
2003,04,26,21,54,11.30
2003,04,26,21,55,11.30
2003,04,26,21,56,11.30
2003,04,26,21,57,11.30
2003,04,26,21,58,11.30
2003,04,26,21,59,11.30
2003,04,26,22,00,11.30
2003,04,26,22,01,11.30
2003,04,26,22,02,11.30
2003,04,26,22,03,11.20
2003,04,26,22,04,11.10
2003,04,26,22,05,11.10
2003,04,26,22,06,11.10
2003,04,26,22,07,11.10
2003,04,26,22,08,11.10
2003,04,26,22,09,11.10
2003,04,26,22,10,11.10
2003,04,26,22,11,11.10
2003,04,26,22,12,11.10
2003,04,26,22,13,11.10
2003,04,26,22,14,11.10
2003,04,26,22,15,11.10
2003,04,26,22,16,11.10
2003,04,26,22,17,11.20
2003,04,26,22,18,11.20
2003,04,26,22,19,11.20
2003,04,26,22,20,11.20
2003,04,26,22,21,11.20
2003,04,26,22,22,11.20
2003,04,26,22,23,11.20
2003,04,26,22,24,11.20
2003,04,26,22,25,11.20
2003,04,26,22,26,11.20
2003,04,26,22,27,11.20
2003,04,26,22,28,11.20
2003,04,26,22,29,11.20
2003,04,26,22,30,11.20
2003,04,26,22,31,11.20
2003,04,26,22,32,11.20
2003,04,26,22,33,11.20
2003,04,26,22,34,11.20
2003,04,26,22,35,11.20
2003,04,26,22,36,11.20
2003,04,26,22,37,11.20
2003,04,26,22,38,11.20
2003,04,26,22,39,11.20
2003,04,26,22,40,11.20
2003,04,26,22,41,10.90
2003,04,26,22,42,10.70
2003,04,26,22,43,10.70
2003,04,26,22,44,10.70
2003,04,26,22,45,10.90
2003,04,26,22,46,10.90
2003,04,26,22,47,10.90
2003,04,26,22,48,10.90
2003,04,26,22,49,10.90
2003,04,26,22,50,10.90
2003,04,26,22,51,10.90
2003,04,26,22,52,10.90
2003,04,26,22,53,10.90
2003,04,26,22,54,10.90
2003,04,26,22,55,10.90
2003,04,26,22,56,10.90
2003,04,26,22,57,10.90
2003,04,26,22,58,10.90
2003,04,26,22,59,10.90
2003,04,26,23,00,10.90
2003,04,26,23,01,10.90
2003,04,26,23,02,10.90
2003,04,26,23,03,10.90
2003,04,26,23,04,10.80
2003,04,26,23,05,10.90
2003,04,26,23,06,10.90
2003,04,26,23,07,10.90
2003,04,26,23,08,10.90
2003,04,26,23,09,10.90
2003,04,26,23,10,10.80
2003,04,26,23,11,10.80
2003,04,26,23,12,10.80
2003,04,26,23,13,10.90
2003,04,26,23,14,10.90
2003,04,26,23,15,10.90
2003,04,26,23,16,10.80
2003,04,26,23,17,10.80
2003,04,26,23,18,10.70
2003,04,26,23,19,10.70
2003,04,26,23,20,10.70
2003,04,26,23,21,10.70
2003,04,26,23,22,10.70
2003,04,26,23,23,10.70
2003,04,26,23,24,10.80
2003,04,26,23,25,10.70
2003,04,26,23,26,10.70
2003,04,26,23,27,10.70
2003,04,26,23,28,10.70
2003,04,26,23,29,10.70
2003,04,26,23,30,10.70
2003,04,26,23,31,10.80
2003,04,26,23,32,10.70
2003,04,26,23,33,10.70
2003,04,26,23,34,10.70
2003,04,26,23,35,10.60
2003,04,26,23,36,10.60
2003,04,26,23,37,10.60
2003,04,26,23,38,10.80
2003,04,26,23,39,10.80
2003,04,26,23,40,10.70
2003,04,26,23,41,10.70
2003,04,26,23,42,10.70
2003,04,26,23,43,10.70
2003,04,26,23,44,10.70
2003,04,26,23,45,10.70
2003,04,26,23,46,10.70
2003,04,26,23,47,10.70
2003,04,26,23,48,10.60
2003,04,26,23,49,10.60
2003,04,26,23,50,10.70
2003,04,26,23,51,10.70
2003,04,26,23,52,10.70
2003,04,26,23,53,10.70
2003,04,26,23,54,10.60
2003,04,26,23,55,10.50
2003,04,26,23,56,10.40
2003,04,26,23,57,10.40
2003,04,26,23,58,10.40
2003,04,26,23,59,10.50
